Wrangell, AK

3:37 AM AKDT on March 28, 2017 (GMT -0800)
Wrangell

Weather History for PAWG - May, 2014

Change the Weather History Date:

Sunday, May 18, 2014

  Actual Average Record
Temperature  
Mean Temperature 54 °F -  
Max Temperature 59 °F 55 °F 73 °F (1956)
Min Temperature 48 °F 40 °F 30 °F (1970)
Degree Days  
Heating Degree Days 12    
Growing Degree Days 4 (Base 50)    
Moisture  
Dew Point 45 °F    
Average Humidity 74    
Maximum Humidity 87    
Minimum Humidity 63    
Precipitation  
Precipitation 0.00 in - - ()
Sea Level Pressure  
Sea Level Pressure 29.89 in    
Wind  
Wind Speed 4 mph (WNW)    
Max Wind Speed 10 mph    
Max Gust Speed -    
Visibility 10 miles    
Events      
Averages and records for this station are not official NWS values.
T = Trace of Precipitation, MM = Missing Value Source: NWS Daily Summary

Daily Weather History Graph

Daily Weather History Graph

Search for Another Location

Airport or City:

Trip Planner

Search our weather history database for the weather conditions in past years. The results will help you decide how hot, cold, wet, or windy it might be!

Date:

Astronomy

May. 18, 2014 Rise Set
Actual Time 4:28 AM AKDT 9:04 PM AKDT
Civil Twilight 3:35 AM AKDT 9:58 PM AKDT
Nautical Twilight 2:08 AM AKDT 11:27 PM AKDT
Astronomical Twilight Sun does not rise Sun does not rise
Moon 12:01 AM AKDT (5/18) 8:35 AM AKDT (5/18)
Length of Visible Light 18h 22m
Length of Day
16h 36m
Waning Gibbous, 79% of the Moon is Illuminated
May 18
Waning Gibbous
May 21
Last Quarter
May 28
New
Jun 5
First Quarter
Jun 12
Full

Hourly Weather History & Observations

Time (AKDT) Temp. Dew Point Humidity Pressure Visibility Wind Dir Wind Speed Gust Speed Precip Events Conditions
12:16 AM 53.6 °F 46.4 °F 77% 29.93 in 10.0 mi SSE 4.6 mph - N/A   Overcast
12:36 AM 53.6 °F 44.6 °F 72% 29.94 in 10.0 mi West 5.8 mph - N/A   Overcast
12:56 AM 51.8 °F 44.6 °F 76% 29.94 in 10.0 mi Calm Calm - N/A   Overcast
1:16 AM 51.8 °F 44.6 °F 76% 29.94 in 10.0 mi ENE 4.6 mph - N/A   Overcast
1:36 AM 51.8 °F 44.6 °F 76% 29.94 in 10.0 mi North 3.5 mph - N/A   Overcast
1:56 AM 51.8 °F 44.6 °F 76% 29.93 in 10.0 mi Calm Calm - N/A   Overcast
2:16 AM 50.0 °F 44.6 °F 82% 29.93 in 10.0 mi Calm Calm - N/A   Overcast
2:36 AM 50.0 °F 44.6 °F 82% 29.93 in 10.0 mi Calm Calm - N/A   Overcast
2:56 AM 51.8 °F 44.6 °F 76% 29.92 in 10.0 mi Calm Calm - N/A   Overcast
3:16 AM 51.8 °F 44.6 °F 76% 29.92 in 10.0 mi Calm Calm - N/A   Overcast
3:36 AM 51.8 °F 44.6 °F 76% 29.92 in 10.0 mi Calm Calm - N/A   Overcast
3:56 AM 51.8 °F 44.6 °F 76% 29.92 in 10.0 mi NW 3.5 mph - N/A   Overcast
4:16 AM 51.8 °F 44.6 °F 76% 29.92 in 10.0 mi Calm Calm - N/A   Overcast
4:36 AM 51.8 °F 44.6 °F 76% 29.92 in 10.0 mi SW 4.6 mph - N/A   Overcast
4:56 AM 51.8 °F 44.6 °F 76% 29.92 in 10.0 mi South 3.5 mph - N/A   Overcast
5:16 AM 51.8 °F 44.6 °F 76% 29.92 in 10.0 mi Calm Calm - N/A   Overcast
5:36 AM 51.8 °F 44.6 °F 76% 29.92 in 10.0 mi Calm Calm - N/A   Overcast
5:56 AM 51.8 °F 44.6 °F 76% 29.91 in 10.0 mi Calm Calm - N/A   Overcast
6:16 AM 51.8 °F 44.6 °F 76% 29.91 in 10.0 mi Calm Calm - N/A   Overcast
6:36 AM 50.0 °F 44.6 °F 82% 29.90 in 10.0 mi Calm Calm - N/A   Overcast
6:56 AM 51.8 °F 44.6 °F 76% 29.90 in 10.0 mi Calm Calm - N/A   Mostly Cloudy
7:16 AM 51.8 °F 44.6 °F 76% 29.90 in 10.0 mi NW 4.6 mph - N/A   Mostly Cloudy
7:36 AM 50.0 °F 44.6 °F 82% 29.90 in 10.0 mi NW 4.6 mph - N/A   Mostly Cloudy
7:56 AM 50.0 °F 44.6 °F 82% 29.90 in 10.0 mi NNW 4.6 mph - N/A   Mostly Cloudy
8:16 AM 50.0 °F 44.6 °F 82% 29.89 in 10.0 mi NW 6.9 mph - N/A   Mostly Cloudy
8:36 AM 50.0 °F 44.6 °F 82% 29.89 in 10.0 mi NW 5.8 mph - N/A   Mostly Cloudy
8:56 AM 48.2 °F 44.6 °F 87% 29.90 in 10.0 mi NW 6.9 mph - N/A   Overcast
9:16 AM 51.8 °F 44.6 °F 76% 29.90 in 10.0 mi West 5.8 mph - N/A   Overcast
9:36 AM 51.8 °F 44.6 °F 76% 29.90 in 10.0 mi West 5.8 mph - N/A   Overcast
9:56 AM 51.8 °F 44.6 °F 76% 29.90 in 10.0 mi West 8.1 mph - N/A   Overcast
10:16 AM 53.6 °F 44.6 °F 72% 29.90 in 10.0 mi West 6.9 mph - N/A   Overcast
10:36 AM 53.6 °F 44.6 °F 72% 29.89 in 10.0 mi WNW 6.9 mph - N/A   Overcast
10:56 AM 53.6 °F 44.6 °F 72% 29.89 in 10.0 mi WNW 5.8 mph - N/A   Mostly Cloudy
11:16 AM 55.4 °F 44.6 °F 67% 29.89 in 10.0 mi WNW 6.9 mph - N/A   Mostly Cloudy
11:36 AM 55.4 °F 46.4 °F 72% 29.89 in 10.0 mi WNW 6.9 mph - N/A   Mostly Cloudy
11:56 AM 57.2 °F 46.4 °F 67% 29.89 in 10.0 mi West 6.9 mph - N/A   Mostly Cloudy
12:16 PM 57.2 °F 46.4 °F 67% 29.88 in 10.0 mi WNW 6.9 mph - N/A   Mostly Cloudy
12:36 PM 57.2 °F 46.4 °F 67% 29.88 in 10.0 mi West 8.1 mph - N/A   Mostly Cloudy
12:56 PM 55.4 °F 44.6 °F 67% 29.88 in 10.0 mi West 8.1 mph - N/A   Mostly Cloudy
1:16 PM 57.2 °F 46.4 °F 67% 29.89 in 10.0 mi West 8.1 mph - N/A   Mostly Cloudy
1:36 PM 57.2 °F 46.4 °F 67% 29.88 in 10.0 mi WNW 9.2 mph - N/A   Mostly Cloudy
1:56 PM 57.2 °F 46.4 °F 67% 29.88 in 10.0 mi West 6.9 mph - N/A   Mostly Cloudy
2:16 PM 57.2 °F 46.4 °F 67% 29.88 in 10.0 mi WNW 10.4 mph - N/A   Mostly Cloudy
2:36 PM 57.2 °F 46.4 °F 67% 29.88 in 10.0 mi WNW 8.1 mph - N/A   Mostly Cloudy
2:56 PM 59.0 °F 46.4 °F 63% 29.88 in 10.0 mi West 8.1 mph - N/A   Mostly Cloudy
3:16 PM 59.0 °F 46.4 °F 63% 29.88 in 10.0 mi West 5.8 mph - N/A   Mostly Cloudy
3:36 PM 59.0 °F 46.4 °F 63% 29.87 in 10.0 mi NW 10.4 mph - N/A   Mostly Cloudy
3:56 PM 57.2 °F 46.4 °F 67% 29.87 in 10.0 mi WNW 8.1 mph - N/A   Mostly Cloudy
4:16 PM 57.2 °F 46.4 °F 67% 29.86 in 10.0 mi NW 8.1 mph - N/A   Mostly Cloudy
4:36 PM 55.4 °F 46.4 °F 72% 29.86 in 10.0 mi NW 9.2 mph - N/A   Mostly Cloudy
4:56 PM 55.4 °F 46.4 °F 72% 29.86 in 10.0 mi NNW 9.2 mph - N/A   Mostly Cloudy
5:16 PM 55.4 °F 46.4 °F 72% 29.85 in 10.0 mi WNW 5.8 mph - N/A   Mostly Cloudy
5:36 PM 55.4 °F 46.4 °F 72% 29.85 in 10.0 mi North 8.1 mph - N/A   Mostly Cloudy
5:56 PM 55.4 °F 46.4 °F 72% 29.85 in 10.0 mi NW 3.5 mph - N/A   Overcast
6:16 PM 55.4 °F 46.4 °F 72% 29.85 in 10.0 mi NNW 5.8 mph - N/A   Overcast
6:36 PM 53.6 °F 46.4 °F 77% 29.85 in 10.0 mi NNW 4.6 mph - N/A   Overcast
6:56 PM 53.6 °F 46.4 °F 77% 29.85 in 10.0 mi SSE 4.6 mph - N/A   Overcast
7:16 PM 53.6 °F 46.4 °F 77% 29.85 in 10.0 mi SE 4.6 mph - N/A   Overcast
7:36 PM 55.4 °F 46.4 °F 72% 29.85 in 10.0 mi SSE 5.8 mph - N/A   Overcast
7:56 PM 53.6 °F 44.6 °F 72% 29.85 in 10.0 mi SSE 6.9 mph - N/A   Overcast
8:16 PM 53.6 °F 44.6 °F 72% 29.85 in 10.0 mi WSW 3.5 mph - N/A   Overcast
8:36 PM 53.6 °F 44.6 °F 72% 29.86 in 10.0 mi North 3.5 mph - N/A   Overcast
8:56 PM 51.8 °F 44.6 °F 76% 29.86 in 10.0 mi North 4.6 mph - N/A   Overcast
9:16 PM 51.8 °F 42.8 °F 71% 29.86 in 10.0 mi Calm Calm - N/A   Overcast
9:36 PM 51.8 °F 44.6 °F 76% 29.87 in 10.0 mi Calm Calm - N/A   Overcast
9:56 PM 51.8 °F 44.6 °F 76% 29.87 in 10.0 mi SSE 4.6 mph - N/A   Overcast
10:16 PM 51.8 °F 44.6 °F 76% 29.87 in 10.0 mi SE 3.5 mph - N/A   Overcast
10:36 PM 51.8 °F 42.8 °F 71% 29.87 in 10.0 mi South 4.6 mph - N/A   Overcast
10:56 PM 51.8 °F 42.8 °F 71% 29.87 in 10.0 mi SE 6.9 mph - N/A   Overcast
11:16 PM 50.0 °F 42.8 °F 76% 29.87 in 10.0 mi Calm Calm - N/A   Overcast
11:36 PM 50.0 °F 42.8 °F 76% 29.87 in 10.0 mi Calm Calm - N/A   Overcast
11:56 PM 50.0 °F 42.8 °F 76% 29.87 in 10.0 mi West 4.6 mph - N/A   Overcast